Location: Schommer Observatory
(40.5200°N, 74.4500°W)
Time: 12:34:44
(UTC-05:00)

Tiangong 2 - Pass Details

Date: 09 October 2017
Orbit: 386 x 390 km, 42.8° (Epoch: 17 December)

Event Time Altitude Azimuth Distance (km) Brightness Sun altitude
Exits shadow 06:28:02 - 251° (WSW) 1,538 3.5 -7.4°
Reaches altitude 10° 06:28:19 10° 251° (WSW) 1,420 3.3 -7.3°
Maximum altitude 06:31:32 85° 165° (SSE) 397 1.1 -6.7°
Drops below altitude 10° 06:34:45 10° 75° (ENE) 1,428 5.4 -6.1°
Sets 06:36:50 0° 74° (ENE) 2,286 6.6 -5.7°
